Location: Baia de Cri?
(46.1667°N, 22.7167°E)
Time: 08:39:27
(UTC+00:00)

BREEZE-M DEB (TANK) - Pass Details

Date: 15 January 2026
Orbit: 326 x 14637 km, 49.5° (Epoch: 10 February)

Event Time Altitude Azimuth Distance (km) Brightness Sun altitude
Exits shadow 04:02:13 44° 32° (NNE) 574 3.5 -21.2°
Drops below altitude 10° 04:05:39 10° 87° (E) 2,092 7.4 -20.6°
Sets 04:09:25 0° 93° (E) 3,961 9.3 -20.0°
